Terug naar catalogus

USA 55

ActiefMilitairPO
NORAD 20547·PAYLOAD·🇺🇸 United States

Gelanceerd Apr 5, 1990 vanaf Vandenberg Space Force Base

Loading…

Volgende Passages (komende 24 uur)

TLE

VersSource: Space-Track

Epoch: Sep 14, 2026, 21:36 UTC

1 20547U 90028B   26257.90047638  .00004848  00000-0  97706-4 0  9993
2 20547  94.0971 194.0700 0055691 145.6111 214.8771 15.44964357 15718

Volg USA 55 in realtime met AllMySat

Download on the App Store